Date,TemperatureHighF,TemperatureAvgF,TemperatureLowF,DewpointHighF,DewpointAvgF,DewpointLowF,HumidityHigh,HumidityAvg,HumidityLow,PressureMaxIn,PressureMinIn,WindSpeedMaxMPH,WindSpeedAvgMPH,GustSpeedMaxMPH,PrecipitationSumIn
2013-2-1,78.8,59.1,44.8,44.2,38.1,29.8,86,52,17,30.02,29.87,2,0,6,0.00
2013-2-2,80.8,63.7,49.6,51.0,39.9,24.8,73,47,15,30.03,29.88,2,0,6,0.00
2013-2-3,79.2,66.4,54.3,51.2,43.7,38.4,71,45,28,29.91,29.73,6,1,11,0.00
2013-2-4,85.3,64.7,50.4,43.4,33.7,21.7,66,37,12,29.85,29.69,5,1,12,0.00
2013-2-5,82.8,65.1,47.8,41.3,33.0,21.3,55,33,13,29.82,29.65,9,2,16,0.00
2013-2-6,80.1,64.0,53.6,46.1,39.7,15.4,70,45,10,29.85,29.67,8,3,19,0.00
2013-2-7,77.2,60.8,44.1,46.8,28.8,12.7,63,35,10,29.88,29.69,10,2,22,0.00
2013-2-8,59.9,49.8,43.3,41.0,36.2,30.6,83,60,41,29.74,29.65,13,6,27,0.00
2013-2-9,61.0,50.3,41.2,34.4,32.2,29.6,69,51,33,29.85,29.67,8,4,24,0.00
2013-2-10,64.0,52.3,43.9,35.0,32.0,28.9,59,47,28,29.85,28.33,7,4,20,0.00
2013-2-11,63.1,52.5,36.1,35.5,15.3,-3.4,63,27,10,30.05,29.81,9,4,25,0.00
2013-2-12,71.8,50.9,32.9,19.9,11.8,1.9,46,25,10,30.14,29.96,6,1,11,0.00
2013-2-13,78.1,55.9,37.6,28.5,20.0,9.2,50,29,10,30.06,29.85,6,1,17,0.00
2013-2-14,79.5,62.7,45.1,31.7,21.9,14.2,49,24,10,30.01,29.85,8,2,20,0.00
2013-2-15,80.4,63.1,47.3,27.6,19.9,10.7,42,22,10,30.08,29.94,9,2,17,0.00
2013-2-16,83.7,61.1,43.7,26.6,18.1,7.9,39,21,10,30.55,29.77,4,1,8,0.00
2013-2-17,82.0,63.3,43.3,34.6,21.3,7.9,38,23,10,29.79,29.59,10,3,21,0.00
2013-2-18,77.5,61.9,43.3,39.2,28.3,15.2,47,30,10,29.81,29.63,4,1,11,0.00
2013-2-19,61.9,55.2,47.3,41.9,38.2,33.6,69,53,40,29.67,29.46,13,6,34,0.00
2013-2-20,47.5,47.0,46.9,40.1,40.0,38.9,77,76,72,29.49,29.48,3,2,10,0.00